Вернуться в каталог

STARLINK-2613

АктивенСвязьVLEO
NORAD 48353·PAYLOAD·🇺🇸 United States

Запущен May 4, 2021 с Cape Canaveral Space Force Station

Loading…

Ближайшие Пролёты (ближайшие 24 часа)

TLE

СвежийSource: CelesTrak SupGP

Эпоха: Sep 14, 2026, 20:31 UTC

1 48353C 21038A   26257.85534722  .00016423  00000+0  52811-3 0  2577
2 48353  53.1590 197.7982 0001412  98.5914 346.0246 15.31693576    17

Отслеживайте STARLINK-2613 в реальном времени с AllMySat

Download on the App Store